Погода в Белогорском

Россия / Оренбургская область     51°33′57″N   56°31′55″E
темп.,
°C
ветер,
м/с
пор.,
м/с
влажн.,
%
обл.,
%
осадки,
мм/ч
давл.,
гПа
погр.,
м
5 августа, чт
чт523:00+28вюв8163337 0.1 1012376
02:00+25юв3536100 0.0 101185
05:00+24юв2240100 0.0 101013
08:00+27юв3533100 0.1 1010181
11:00+35ююз5517100 0.1 1009949
14:00+38зсз6613100 0.0 10082847
17:00+38зсз681619 0.0 10073897
20:00+26ююв464388 0.1 1009194
6 августа, пт
пт623:00+21в21745 2.3 100918
02:00+20ссз1174100 0.0 100911
05:00+19ссз3783100 0.0 1009159
08:00+21с477575 0.0 1011311
11:00+27с674343 0.0 10111196
14:00+31ссз66260 0.0 10102594
17:00+31ссз76215 0.0 10102581
20:00+27ссз79270 0.0 1010600
7 августа, сб
сб723:00+22с6134289 0.0 1012431
02:00+18ссв385912 0.0 1013145
05:00+16ссв33635 0.0 101453
08:00+21ссв23485 0.0 1015244
11:00+26ссз333068 0.0 10151454
14:00+30ссз441457 0.0 10142012
17:00+31ссз66123 0.0 10132237
20:00+27с69210 0.0 1014556
8 августа, вс
вс823:00+20ссв49340 0.0 1016171
02:00+19св34410 0.0 101669
05:00+17ссв22489 0.0 101715
08:00+20св354054 0.0 1018260
11:00+26с45295 0.0 10171363
14:00+30с67184 0.0 10161925
17:00+31с67167 0.0 10152205
20:00+27с6102012 0.0 1016482
9 августа, пн
пн923:00+20ссв4935100 0.0 1017147
02:00+17св3745100 0.0 1018125
05:00+16всв354898 0.0 101891
08:00+19в35387 0.0 1019248
11:00+26вюв332574 0.0 10181183
14:00+30юв1116100 0.0 10171884
17:00+31ююв1114100 0.0 10172116
20:00+28ю22187 0.0 101624